Location: Newark
(52.2090°N, 4.1550°W)
Time: 04:57:20
(UTC+00:00)

Explorer 7 - Pass Details

Date: 28 September 2019
Orbit: 485 x 680 km, 50.3° (Epoch: 18 October)

Event Time Altitude Azimuth Distance (km) Brightness Sun altitude
Rises 23:10:35 0° 271° (W) 2,819 - -38.6°
Reaches altitude 10° 23:12:49 10° 269° (W) 1,949 - -38.7°
Maximum altitude 23:17:17 68° 187° (S) 681 - -38.9°
Drops below altitude 10° 23:22:00 10° 105° (ESE) 2,060 - -39.1°
Sets 23:24:24 0° 103° (ESE) 2,992 - -39.2°
